Terminal Aerodrome Forecast
Issued by NWS El Paso, TX

Home | Current Version | Previous Version | Text Only | Print | Product List | Glossary On
Versions: 1 2 3 4 5 6 7 8 9 10 11 12 13 14 15 16
000
FTUS44 KEPZ 290538
TAFELP
TAF
KELP 290538Z 2906/3006 08009KT P6SM SKC
     FM291200 07010KT P6SM SCT060 BKN100
     FM292000 12010G18KT P6SM VCTS SCT050CB BKN080
     FM300000 13012G22KT 6SM -TSRA BKN050CB BKN080=

USA.gov is the U.S. government's official web portal to all federal, state and local government web resources and services.